| time (UTC) | temp F | wind direction | speed knots | gust knots | rain 1hr in | rain 24hr in | rain mn in | humidity % | barometer mb |
| 20260507094509 | 53 | 274 | 0.0 | 0.0 | 0.00 | 0.00 | 0.00 | 76 | 1021.3 |
| 20260507093009 | 53 | 276 | 0.0 | 0.9 | 0.00 | 0.00 | 0.00 | 76 | 1021.5 |
| 20260507091504 | 53 | 277 | 0.0 | 1.7 | 0.00 | 0.00 | 0.00 | 76 | 1021.7 |
| 20260507090003 | 53 | 274 | 0.0 | 2.6 | 0.00 | 0.00 | 0.00 | 76 | 1021.6 |
| 20260507084501 | 53 | 279 | 0.0 | 0.0 | 0.00 | 0.00 | 0.00 | 77 | 1021.6 |
| 20260507083101 | 53 | 285 | 0.0 | 0.9 | 0.00 | 0.00 | 0.00 | 77 | 1021.6 |
| 20260507081602 | 53 | 289 | 0.0 | 0.9 | 0.00 | 0.00 | 0.00 | 79 | 1021.6 |
| 20260507080057 | 53 | 277 | 0.0 | 2.6 | 0.00 | 0.00 | 0.00 | 78 | 1021.5 |
| 20260507074601 | 53 | 273 | 0.0 | 0.9 | 0.00 | 0.00 | 0.00 | 78 | 1021.5 |
| 20260507073133 | 54 | 266 | 0.0 | 3.5 | 0.00 | 0.00 | 0.00 | 78 | 1021.5 |
| 20260507071555 | 53 | 281 | 0.0 | 0.9 | 0.00 | 0.00 | 0.00 | 78 | 1021.5 |
| 20260507070053 | 53 | 277 | 0.0 | 1.7 | 0.00 | 0.00 | 0.00 | 79 | 1021.4 |
| 20260507064608 | 53 | 24 | 0.9 | 5.2 | 0.00 | 0.00 | 0.00 | 79 | 1021.3 |
| 20260507063102 | 53 | 334 | 0.0 | 4.3 | 0.00 | 0.00 | 0.00 | 80 | 1021.4 |
| 20260507061551 | 53 | 25 | 0.0 | 8.7 | 0.00 | 0.00 | 0.00 | 81 | 1021.4 |
| 20260507060055 | 53 | 360 | 0.9 | 8.7 | 0.00 | 0.00 | 0.00 | 82 | 1021.5 |
| 20260507054548 | 53 | 4 | 0.0 | 3.5 | 0.00 | 0.00 | 0.00 | 83 | 1021.4 |
| 20260507053047 | 54 | 35 | 0.9 | 4.3 | 0.00 | 0.00 | 0.00 | 83 | 1021.3 |
| 20260507051547 | 54 | 349 | 0.9 | 4.3 | 0.00 | 0.00 | 0.00 | 82 | 1021.3 |
| 20260507050050 | 55 | 4 | 0.0 | 4.3 | 0.00 | 0.00 | 0.00 | 81 | 1021.4 |
| 20260507044547 | 55 | 340 | 0.9 | 6.1 | 0.00 | 0.00 | 0.00 | 81 | 1021.4 |
| 20260507043047 | 55 | 18 | 1.7 | 5.2 | 0.00 | 0.00 | 0.00 | 80 | 1021.3 |
| 20260507041547 | 56 | 345 | 0.0 | 7.8 | 0.00 | 0.00 | 0.00 | 80 | 1021.1 |
| 20260507040041 | 56 | 9 | 0.0 | 13.0 | 0.00 | 0.00 | 0.00 | 79 | 1021.0 |
| 20260507034549 | 56 | 336 | 3.5 | 7.0 | 0.00 | 0.00 | 0.00 | 79 | 1020.8 |
| 20260507033057 | 57 | 25 | 0.9 | 7.8 | 0.00 | 0.00 | 0.00 | 79 | 1020.7 |
| 20260507031539 | 57 | 322 | 4.3 | 10.4 | 0.00 | 0.00 | 0.00 | 78 | 1020.4 |
| 20260507030039 | 58 | 322 | 2.6 | 13.0 | 0.00 | 0.00 | 0.00 | 78 | 1020.2 |
| 20260507024550 | 58 | 1 | 1.7 | 8.7 | 0.00 | 0.00 | 0.00 | 77 | 1020.0 |
| 20260507023038 | 59 | 334 | 1.7 | 8.7 | 0.00 | 0.00 | 0.00 | 77 | 1019.9 |
| 20260507021537 | 59 | 335 | 1.7 | 9.6 | 0.00 | 0.00 | 0.00 | 76 | 1019.8 |
| 20260507020037 | 60 | 359 | 0.0 | 9.6 | 0.00 | 0.00 | 0.00 | 76 | 1019.8 |
| 20260507014534 | 60 | 41 | 2.6 | 9.6 | 0.00 | 0.00 | 0.00 | 75 | 1020.0 |
| 20260507013037 | 60 | 330 | 5.2 | 11.3 | 0.00 | 0.00 | 0.00 | 73 | 1020.0 |
| 20260507011535 | 62 | 359 | 2.6 | 9.6 | 0.00 | 0.00 | 0.00 | 71 | 1020.0 |
| 20260507010037 | 63 | 360 | 4.3 | 11.3 | 0.00 | 0.00 | 0.00 | 70 | 1020.0 |
| 20260507004530 | 64 | 17 | 3.5 | 13.0 | 0.00 | 0.00 | 0.00 | 70 | 1020.0 |
| 20260507003029 | 65 | 92 | 1.7 | 8.7 | 0.00 | 0.00 | 0.00 | 69 | 1019.9 |
| 20260507001530 | 66 | 24 | 1.7 | 7.8 | 0.00 | 0.00 | 0.00 | 68 | 1019.8 |
| 20260507000029 | 66 | 20 | 2.6 | 7.0 | 0.00 | 0.00 | 0.00 | 69 | 1019.9 |
| 20260506234543 | 66 | 42 | 0.9 | 4.3 | 0.00 | 0.00 | 0.00 | 70 | 1019.8 |
| 20260506233027 | 66 | 151 | 0.9 | 3.5 | 0.00 | 0.00 | 0.00 | 68 | 1019.8 |
| 20260506231526 | 67 | 46 | 0.0 | 4.3 | 0.00 | 0.00 | 0.00 | 67 | 1019.8 |
| 20260506230024 | 67 | 316 | 0.0 | 1.7 | 0.00 | 0.00 | 0.00 | 67 | 1020.0 |
| 20260506224528 | 66 | 61 | 0.0 | 1.7 | 0.00 | 0.00 | 0.00 | 68 | 1020.2 |
| 20260506223023 | 65 | 1 | 1.7 | 5.2 | 0.00 | 0.00 | 0.00 | 68 | 1020.3 |
| 20260506221522 | 67 | 85 | 0.0 | 3.5 | 0.00 | 0.00 | 0.00 | 67 | 1020.3 |
| 20260506220032 | 66 | 228 | 0.9 | 5.2 | 0.00 | 0.00 | 0.00 | 68 | 1020.4 |
| 20260506214521 | 66 | 120 | 1.7 | 6.1 | 0.00 | 0.00 | 0.00 | 67 | 1020.4 |
| 20260506213019 | 66 | 168 | 0.9 | 4.3 | 0.00 | 0.00 | 0.00 | 69 | 1020.4 |
| 20260506211520 | 65 | 99 | 0.9 | 3.5 | 0.00 | 0.00 | 0.00 | 70 | 1020.7 |
| 20260506210013 | 63 | 150 | 0.0 | 2.6 | 0.00 | 0.00 | 0.00 | 73 | 1020.9 |
| 20260506204514 | 64 | 17 | 0.0 | 1.7 | 0.00 | 0.00 | 0.00 | 72 | 1020.8 |
| 20260506203014 | 63 | 119 | 0.0 | 4.3 | 0.00 | 0.00 | 0.00 | 73 | 1020.8 |
| 20260506201513 | 63 | 79 | 0.0 | 1.7 | 0.00 | 0.00 | 0.00 | 74 | 1020.7 |
| 20260506200008 | 62 | 80 | 0.0 | 1.7 | 0.00 | 0.00 | 0.00 | 75 | 1020.9 |
| 20260506194508 | 61 | 75 | 0.0 | 4.3 | 0.00 | 0.00 | 0.00 | 76 | 1021.1 |
| 20260506193006 | 62 | 96 | 0.0 | 0.9 | 0.00 | 0.00 | 0.00 | 75 | 1021.3 |
| 20260506191503 | 62 | 164 | 0.0 | 0.9 | 0.00 | 0.00 | 0.00 | 76 | 1021.2 |
| 20260506190002 | 61 | 276 | 0.0 | 1.7 | 0.00 | 0.00 | 0.00 | 76 | 1021.1 |
| 20260506184600 | 61 | 147 | 0.0 | 4.3 | 0.00 | 0.00 | 0.00 | 78 | 1021.0 |
| 20260506183101 | 59 | 106 | 0.0 | 1.7 | 0.00 | 0.00 | 0.00 | 81 | 1021.0 |
| 20260506181613 | 58 | 100 | 0.0 | 2.6 | 0.00 | 0.00 | 0.00 | 82 | 1021.2 |
| 20260506180054 | 58 | 140 | 0.0 | 0.9 | 0.00 | 0.00 | 0.00 | 83 | 1021.1 |
| 20260506174553 | 58 | 193 | 0.0 | 0.0 | 0.00 | 0.00 | 0.00 | 83 | 1021.2 |
| 20260506173120 | 57 | 194 | 0.0 | 0.9 | 0.00 | 0.00 | 0.00 | 84 | 1021.0 |
| 20260506171556 | 57 | 70 | 0.0 | 0.9 | 0.00 | 0.00 | 0.00 | 84 | 1020.8 |
| 20260506170058 | 57 | 91 | 0.0 | 0.9 | 0.00 | 0.00 | 0.00 | 85 | 1020.8 |
| 20260506164549 | 57 | 265 | 0.0 | 0.9 | 0.00 | 0.00 | 0.00 | 84 | 1021.0 |
| 20260506163048 | 57 | 109 | 0.0 | 2.6 | 0.00 | 0.00 | 0.00 | 84 | 1020.9 |
| 20260506161549 | 57 | 131 | 0.0 | 0.0 | 0.00 | 0.00 | 0.00 | 85 | 1020.8 |
| 20260506160058 | 56 | 23 | 0.0 | 2.6 | 0.00 | 0.00 | 0.00 | 85 | 1020.7 |
| 20260506154548 | 56 | 101 | 0.0 | 1.7 | 0.00 | 0.00 | 0.00 | 86 | 1020.4 |
| 20260506153044 | 55 | 108 | 0.0 | 1.7 | 0.00 | 0.00 | 0.00 | 87 | 1020.0 |
| 20260506151546 | 55 | 330 | 0.0 | 1.7 | 0.00 | 0.00 | 0.00 | 87 | 1020.8 |
| 20260506150049 | 55 | 333 | 0.0 | 3.5 | 0.00 | 0.00 | 0.00 | 87 | 1020.9 |
| 20260506144545 | 55 | 44 | 0.0 | 4.3 | 0.00 | 0.00 | 0.00 | 87 | 1020.8 |
| 20260506143040 | 55 | 44 | 0.0 | 4.3 | 0.00 | 0.00 | 0.00 | 87 | 1020.6 |
| 20260506141537 | 55 | 9 | 0.0 | 3.5 | 0.00 | 0.00 | 0.00 | 87 | 1020.0 |
| 20260506140035 | 0 | 0.0 | 0.0 | 0.00 | 0.00 | 0.00 | 1019.8 | ||
| 20260506134527 | 0 | 0.0 | 0.0 | 0.00 | 0.00 | 0.00 | 1019.8 | ||
| 20260506133023 | 0 | 0.0 | 0.0 | 0.00 | 0.00 | 0.00 | 1019.7 | ||
| 20260506131539 | 0 | 0.0 | 0.0 | 0.00 | 0.00 | 0.00 | 1019.6 | ||
| 20260506130023 | 0 | 0.0 | 0.0 | 0.00 | 0.00 | 0.00 | 1019.2 | ||
| 20260506124510 | 0 | 0.0 | 0.0 | 0.00 | 0.00 | 0.00 | 1019.3 | ||
| 20260506123004 | 0 | 0.0 | 0.0 | 0.00 | 0.00 | 0.00 | 1019.2 | ||
| 20260506121602 | 0 | 0.0 | 0.0 | 0.00 | 0.00 | 0.00 | 1019.3 | ||
| 20260506120058 | 56 | 89 | 0.0 | 0.0 | 0.00 | 0.00 | 0.00 | 85 | 1019.2 |
| 20260506114559 | 56 | 136 | 0.0 | 0.0 | 0.00 | 0.00 | 0.00 | 85 | 1019.1 |
| 20260506113055 | 56 | 136 | 0.0 | 0.0 | 0.00 | 0.00 | 0.00 | 85 | 1018.9 |
| 20260506111553 | 56 | 136 | 0.0 | 0.0 | 0.00 | 0.00 | 0.00 | 85 | 1018.9 |
| 20260506110055 | 56 | 136 | 0.0 | 0.0 | 0.00 | 0.00 | 0.00 | 85 | 1018.6 |
| 20260506104555 | 56 | 136 | 0.0 | 0.0 | 0.00 | 0.00 | 0.00 | 85 | 1018.3 |
| 20260506103047 | 56 | 137 | 0.0 | 0.0 | 0.00 | 0.00 | 0.00 | 85 | 1018.2 |
| 20260506101545 | 56 | 136 | 0.0 | 0.0 | 0.00 | 0.00 | 0.00 | 85 | 1018.0 |
| 20260506100044 | 56 | 60 | 0.0 | 0.9 | 0.00 | 0.00 | 0.00 | 85 | 1017.9 |